This demonstration page uses our WeatherBlox Daily Observations layout. Learn more.

Left ArrowRight Arrow

41.12389, -100.76542

Hourly Observations for February 13, 2017

Temp ( °F °C ) Dew Point ( °F °C ) Humidity (%) Winds ( mph kmh ) Pressure ( in mb ) Visibility ( mi km ) Precip ( " mm )
12:53 am 00:53 Clear 33 0.6 12 -11.1 42 42 SSE 5 7 30.36 1028 10 16 0.00 0.00
1:53 am 01:53 Clear 31 -0.6 13 -10.6 47 47 ESE 5 7 30.33 1027 10 16 0.00 0.00
2:53 am 02:53 Clear 28 -2.2 14 -10 56 56 VRB 5 7 30.34 1027 10 16 0.00 0.00
3:53 am 03:53 Clear 29 -1.7 13 -10.6 51 51 Calm 30.32 1027 10 16 0.00 0.00
4:53 am 04:53 Clear 25 -3.9 15 -9.4 66 66 Calm 30.31 1027 10 16 0.00 0.00
5:53 am 05:53 Clear 22 -5.6 13 -10.6 68 68 WNW 3 6 30.32 1027 10 16 0.00 0.00
6:53 am 06:53 Clear 22 -5.6 14 -10 71 71 SSW 3 6 30.33 1027 10 16 0.00 0.00
7:53 am 07:53 Sunny 23 -5 15 -9.4 72 72 E 3 6 30.31 1026 10 16 0.00 0.00
8:53 am 08:53 Sunny 27 -2.8 21 -6.1 78 78 Calm 30.30 1026 10 16 0.00 0.00
9:53 am 09:53 Sunny 34 1.1 19 -7.2 54 54 Calm 30.27 1025 10 16 0.00 0.00
10:53 am 10:53 Sunny 42 5.6 19 -7.2 40 40 W 10 17 30.27 1025 10 16 0.00 0.00
11:53 am 11:53 Sunny 42 5.6 19 -7.2 40 40 W 7 11 30.24 1024 10 16 0.00 0.00
1:53 pm 13:53 Sunny 44 6.7 20 -6.7 38 38 VRB 3 6 30.16 1022 10 16 0.00 0.00
2:53 pm 14:53 Sunny 45 7 21 -6 39 39 SSW 5 7 30.15 1021 10 16 0.00 0.00
3:53 pm 15:53 Sunny 48 8.9 20 -6.7 33 33 VRB 3 6 30.14 1021 10 16 0.00 0.00
4:53 pm 16:53 Sunny 49 9.4 21 -6.1 33 33 Calm 30.14 1021 10 16 0.00 0.00
5:53 pm 17:53 Sunny 44 6.7 20 -6.7 38 38 NNE 5 7 30.16 1021 10 16 0.00 0.00
6:53 pm 18:53 Clear 41 5 18 -7.8 39 39 N 9 15 30.19 1022 10 16 0.00 0.00
7:53 pm 19:53 Clear 34 1.1 19 -7.2 54 54 NNW 7 11 30.23 1024 10 16 0.00 0.00
8:53 pm 20:53 Clear 30 -1.1 19 -7.2 64 64 NW 8 13 30.24 1024 10 16 0.00 0.00
9:53 pm 21:53 Clear 28 -2.2 19 -7.2 69 69 NW 8 13 30.23 1024 10 16 0.00 0.00
10:53 pm 22:53 Clear 38 3.3 21 -6.1 51 51 NNW 12 19 30.19 1022 10 16 0.00 0.00
11:53 pm 23:53 Clear 36 2.2 21 -6.1 55 55 NNW 9 15 30.20 1023 10 16 0.00 0.00

Powered by AerisWeather